カタログに戻る

FLOCK 4G 33

運用中科学SSO
NORAD 62685·PAYLOAD·🇺🇸 United States

打ち上げ Jan 14, 2025 から Vandenberg Space Force Base

Loading…

次のパス (今後24時間)

TLE

最新Source: Space-Track

元期: Sep 14, 2026, 04:01 UTC

1 62685U 25009CE  26257.16769272  .00004484  00000-0  17504-3 0  9995
2 62685  97.3896 336.0503 0005895  31.7793 328.3800 15.26399409 92371

AllMySatでFLOCK 4G 33をリアルタイム追跡

Download on the App Store